| time (UTC) | temp F | wind direction | speed MPH | gust MPH | rain 1hr in | rain 24hr in | rain mn in | humidity % | barometer mb |
| 20260504014646 | 50 | 0 | 0.0 | 4.0 | 0.00 | 0.00 | 0.00 | 60 | 1005.9 |
| 20260504013252 | 51 | 0 | 0.0 | 4.0 | 0.00 | 0.00 | 0.00 | 61 | 1005.9 |
| 20260504011146 | 50 | 359 | 0.0 | 0.0 | 0.00 | 0.00 | 0.00 | 60 | 1005.8 |
| 20260504010451 | 212 | 359 | 0.0 | 0.0 | 0.00 | 0.00 | 0.00 | 100 | |
| 20260504005747 | 50 | 0 | 0.0 | 0.0 | 0.00 | 0.00 | 0.00 | 59 | 1005.9 |
| 20260504003647 | 51 | 0 | 0.0 | 0.0 | 0.00 | 0.00 | 0.00 | 59 | 1006.0 |
| 20260504002248 | 51 | 0 | 0.0 | 0.0 | 0.00 | 0.00 | 0.00 | 59 | 1005.9 |
| 20260504001548 | 51 | 0 | 0.0 | 0.0 | 0.00 | 0.00 | 0.00 | 59 | 1005.8 |
| 20260504000148 | 51 | 0 | 0.0 | 0.0 | 0.00 | 0.00 | 0.00 | 58 | 1005.8 |
| 20260503235448 | 51 | 0 | 0.0 | 0.0 | 0.00 | 0.00 | 0.00 | 58 | 1005.8 |
| 20260503233349 | 51 | 0 | 0.0 | 0.0 | 0.00 | 0.00 | 0.00 | 57 | 1006.0 |
| 20260503225150 | 53 | 0 | 0.0 | 0.0 | 0.00 | 0.00 | 0.00 | 56 | 1006.0 |
| 20260503223750 | 53 | 0 | 0.0 | 0.0 | 0.00 | 0.00 | 0.00 | 55 | 1006.0 |
| 20260503223101 | 53 | 0 | 0.0 | 0.0 | 0.00 | 0.00 | 0.00 | 55 | 1006.0 |
| 20260503222351 | 52 | 0 | 0.0 | 0.0 | 0.00 | 0.00 | 0.00 | 55 | 1006.1 |
| 20260503221651 | 52 | 0 | 0.0 | 0.0 | 0.00 | 0.00 | 0.00 | 54 | 1006.1 |
| 20260503220951 | 52 | 0 | 0.0 | 0.0 | 0.00 | 0.00 | 0.00 | 52 | 1006.3 |
| 20260503220251 | 53 | 0 | 0.0 | 0.0 | 0.00 | 0.00 | 0.00 | 51 | 1006.2 |
| 20260503215602 | 53 | 0 | 0.0 | 0.0 | 0.00 | 0.00 | 0.00 | 50 | 1006.2 |
| 20260503214851 | 53 | 0 | 0.0 | 0.0 | 0.00 | 0.00 | 0.00 | 49 | 1006.2 |
| 20260503212054 | 55 | 0 | 0.0 | 0.0 | 0.00 | 0.00 | 0.00 | 48 | 1006.0 |
| 20260503210652 | 55 | 0 | 0.0 | 0.0 | 0.00 | 0.00 | 0.00 | 48 | 1006.3 |
| 20260503204555 | 56 | 0 | 0.0 | 0.0 | 0.00 | 0.00 | 0.00 | 45 | 1006.1 |
| 20260503203858 | 57 | 0 | 0.0 | 0.0 | 0.00 | 0.00 | 0.00 | 45 | 1006.0 |
| 20260503202454 | 58 | 0 | 0.0 | 0.0 | 0.00 | 0.00 | 0.00 | 45 | 1006.1 |
| 20260503201054 | 58 | 0 | 0.0 | 0.0 | 0.00 | 0.00 | 0.00 | 44 | 1005.9 |
| 20260503194954 | 59 | 0 | 0.0 | 0.0 | 0.00 | 0.00 | 0.00 | 43 | 1005.9 |
| 20260503192155 | 60 | 0 | 0.0 | 0.0 | 0.00 | 0.00 | 0.00 | 41 | 1006.2 |
| 20260503191500 | 60 | 0 | 0.0 | 0.0 | 0.00 | 0.00 | 0.00 | 41 | 1006.0 |
| 20260503190058 | 61 | 0 | 0.0 | 0.0 | 0.00 | 0.00 | 0.00 | 40 | 1005.9 |
| 20260503182607 | 64 | 0 | 0.0 | 0.0 | 0.00 | 0.00 | 0.00 | 35 | 1005.9 |
| 20260503181157 | 66 | 0 | 0.0 | 0.0 | 0.00 | 0.00 | 0.00 | 32 | 1005.6 |
| 20260503180542 | 67 | 0 | 0.0 | 0.0 | 0.00 | 0.00 | 0.00 | 31 | 1005.7 |
| 20260503174400 | 73 | 0 | 0.0 | 0.0 | 0.00 | 0.00 | 0.00 | 28 | 1005.5 |
| 20260503171603 | 82 | 338 | 3.0 | 9.0 | 0.00 | 0.00 | 0.00 | 23 | 1005.5 |
| 20260503170905 | 82 | 338 | 4.0 | 8.0 | 0.00 | 0.00 | 0.00 | 23 | 1005.5 |
| 20260503170159 | 83 | 338 | 5.0 | 9.0 | 0.00 | 0.00 | 0.00 | 23 | 1005.5 |
| 20260503120110 | 81 | 0 | 12.0 | 20.0 | 0.00 | 0.00 | 0.00 | 23 | 1007.9 |
| 20260503072813 | 71 | 0 | 14.0 | 23.0 | 0.00 | 0.00 | 0.00 | 36 | 1010.5 |
| 20260503072113 | 71 | 0 | 14.0 | 23.0 | 0.00 | 0.00 | 0.00 | 36 | 1010.6 |
| 20260503071413 | 70 | 0 | 14.0 | 21.0 | 0.00 | 0.00 | 0.00 | 37 | 1010.5 |
| 20260503070713 | 70 | 0 | 14.0 | 21.0 | 0.00 | 0.00 | 0.00 | 37 | 1010.5 |
| 20260503053620 | 68 | 0 | 0.0 | 3.0 | 0.00 | 0.00 | 0.00 | 47 | 1010.8 |
| 20260503052218 | 66 | 0 | 1.0 | 5.0 | 0.00 | 0.00 | 0.00 | 48 | 1010.8 |
| 20260503051523 | 66 | 0 | 1.0 | 5.0 | 0.00 | 0.00 | 0.00 | 48 | 1010.8 |
| 20260503044721 | 64 | 359 | 0.0 | 0.0 | 0.00 | 0.00 | 0.00 | 55 | 1011.0 |
| 20260503035820 | 44 | 90 | 0.0 | 0.0 | 0.00 | 0.00 | 0.00 | 74 | 1011.2 |
| 20260503034418 | 43 | 90 | 0.0 | 0.0 | 0.00 | 0.00 | 0.00 | 73 | 1011.3 |
| 20260503033719 | 43 | 90 | 0.0 | 0.0 | 0.00 | 0.00 | 0.00 | 73 | 1011.0 |
| 20260503033021 | 43 | 90 | 0.0 | 0.0 | 0.00 | 0.00 | 0.00 | 74 | 1011.0 |
| 20260503032326 | 43 | 90 | 0.0 | 0.0 | 0.00 | 0.00 | 0.00 | 73 | 1011.2 |
| 20260503030919 | 43 | 359 | 0.0 | 0.0 | 0.00 | 0.00 | 0.00 | 72 | 1010.9 |
| 20260503030220 | 43 | 359 | 0.0 | 0.0 | 0.00 | 0.00 | 0.00 | 72 | 1010.9 |
| 20260503022720 | 44 | 90 | 0.0 | 0.0 | 0.00 | 0.00 | 0.00 | 69 | 1010.9 |
| 20260503022021 | 45 | 90 | 0.0 | 0.0 | 0.00 | 0.00 | 0.00 | 69 | 1011.0 |
| 20260503020621 | 212 | 359 | 0.0 | 0.0 | 0.00 | 0.00 | 0.00 | 100 | |
| 20260503015921 | 46 | 90 | 0.0 | 0.0 | 0.00 | 0.00 | 0.00 | 70 | 1011.0 |